Time,TemperatureF,DewpointF,PressureIn,WindDirection,WindDirectionDegrees,WindSpeedMPH,WindSpeedGustMPH,Humidity,HourlyPrecipIn,Conditions,Clouds,dailyrainin,SoftwareType,DateUTC
2013-06-22 00:01:00,64.2,56.1,0.00,East,100,0.0,0.0,75,0.00,,---,0.00,VWS V13.01,2013-06-22 04:01:00,
2013-06-22 00:02:00,64.2,56.1,0.00,East,100,0.0,0.0,75,0.00,,---,0.00,VWS V13.01,2013-06-22 04:02:00,
2013-06-22 00:03:00,64.2,56.1,0.00,East,100,0.0,0.0,75,0.00,,---,0.00,VWS V13.01,2013-06-22 04:03:00,
2013-06-22 00:09:00,64.2,56.1,0.00,East,100,0.0,0.0,75,0.00,,---,0.00,VWS V13.01,2013-06-22 04:09:00,
2013-06-22 00:14:00,64.0,56.3,0.00,East,100,0.0,0.0,76,0.00,,---,0.00,VWS V13.01,2013-06-22 04:14:00,
2013-06-22 00:19:00,64.0,56.3,0.00,East,100,0.0,0.0,76,0.00,,---,0.00,VWS V13.01,2013-06-22 04:19:00,
2013-06-22 00:24:00,63.9,56.2,0.00,East,100,0.0,0.0,76,0.00,,---,0.00,VWS V13.01,2013-06-22 04:24:00,
2013-06-22 00:29:00,63.7,56.0,0.00,East,100,0.0,0.0,76,0.00,,---,0.00,VWS V13.01,2013-06-22 04:29:00,
2013-06-22 00:34:00,63.5,55.8,0.00,East,100,0.0,0.0,76,0.00,,---,0.00,VWS V13.01,2013-06-22 04:34:00,
2013-06-22 00:39:00,63.5,56.2,0.00,East,100,0.0,0.0,77,0.00,,---,0.00,VWS V13.01,2013-06-22 04:39:00,
2013-06-22 00:44:00,63.3,56.0,0.00,East,100,0.0,0.0,77,0.00,,---,0.00,VWS V13.01,2013-06-22 04:44:00,
2013-06-22 00:49:00,63.3,56.3,0.00,East,100,0.0,0.0,78,0.00,,---,0.00,VWS V13.01,2013-06-22 04:49:00,
2013-06-22 00:54:00,63.1,56.2,0.00,East,100,0.0,0.0,78,0.00,,---,0.00,VWS V13.01,2013-06-22 04:54:00,
2013-06-22 01:00:00,63.1,56.2,0.00,East,100,0.0,0.0,78,0.00,,---,0.00,VWS V13.01,2013-06-22 05:00:00,
2013-06-22 01:05:00,63.0,56.0,0.00,East,100,0.0,0.0,78,0.00,,---,0.00,VWS V13.01,2013-06-22 05:05:00,
2013-06-22 01:10:00,63.0,56.3,0.00,East,100,0.0,0.0,79,0.00,,---,0.00,VWS V13.01,2013-06-22 05:10:00,
2013-06-22 01:15:00,63.0,56.3,0.00,East,100,0.0,0.0,79,0.00,,---,0.00,VWS V13.01,2013-06-22 05:15:00,
2013-06-22 01:20:00,63.0,56.3,0.00,East,100,0.0,0.0,79,0.00,,---,0.00,VWS V13.01,2013-06-22 05:20:00,
2013-06-22 01:25:00,63.0,56.3,0.00,East,100,0.0,0.0,79,0.00,,---,0.00,VWS V13.01,2013-06-22 05:25:00,
2013-06-22 01:30:00,62.8,56.2,0.00,East,100,0.0,0.0,79,0.00,,---,0.00,VWS V13.01,2013-06-22 05:30:00,
2013-06-22 01:35:00,62.6,56.3,0.00,East,100,0.0,0.0,80,0.00,,---,0.00,VWS V13.01,2013-06-22 05:35:00,
2013-06-22 01:40:00,62.8,56.5,0.00,East,100,0.0,0.0,80,0.00,,---,0.00,VWS V13.01,2013-06-22 05:40:00,
2013-06-22 01:45:00,62.8,56.5,0.00,East,100,0.0,0.0,80,0.00,,---,0.00,VWS V13.01,2013-06-22 05:45:00,
2013-06-22 01:51:00,62.6,56.3,0.00,East,100,0.0,0.0,80,0.00,,---,0.00,VWS V13.01,2013-06-22 05:51:00,
2013-06-22 01:56:00,62.6,56.7,0.00,East,100,0.0,0.0,81,0.00,,---,0.00,VWS V13.01,2013-06-22 05:56:00,
2013-06-22 02:01:00,62.6,56.7,0.00,East,100,0.0,0.0,81,0.00,,---,0.00,VWS V13.01,2013-06-22 06:01:00,
2013-06-22 02:06:00,62.6,56.7,0.00,East,100,0.0,0.0,81,0.00,,---,0.00,VWS V13.01,2013-06-22 06:06:00,
2013-06-22 02:11:00,62.6,56.7,0.00,East,100,0.0,0.0,81,0.00,,---,0.00,VWS V13.01,2013-06-22 06:11:00,
2013-06-22 02:16:00,62.6,56.7,0.00,East,100,0.0,0.0,81,0.00,,---,0.00,VWS V13.01,2013-06-22 06:16:00,
2013-06-22 02:21:00,62.6,56.7,0.00,East,100,0.0,0.0,81,0.00,,---,0.00,VWS V13.01,2013-06-22 06:21:00,
2013-06-22 02:26:00,62.8,57.2,0.00,East,100,0.0,0.0,82,0.00,,---,0.00,VWS V13.01,2013-06-22 06:26:00,
2013-06-22 02:31:00,63.0,57.4,0.00,East,100,0.0,0.0,82,0.00,,---,0.00,VWS V13.01,2013-06-22 06:31:00,
2013-06-22 02:36:00,63.0,57.4,0.00,East,100,0.0,0.0,82,0.00,,---,0.00,VWS V13.01,2013-06-22 06:36:00,
2013-06-22 02:41:00,63.1,57.6,0.00,East,100,0.0,0.0,82,0.00,,---,0.00,VWS V13.01,2013-06-22 06:41:00,
2013-06-22 02:47:00,63.1,57.6,0.00,East,100,0.0,0.0,82,0.00,,---,0.00,VWS V13.01,2013-06-22 06:47:00,
2013-06-22 02:52:00,63.3,57.7,0.00,East,100,0.0,0.0,82,0.00,,---,0.00,VWS V13.01,2013-06-22 06:52:00,
2013-06-22 02:57:00,63.5,57.9,0.00,East,100,0.0,0.0,82,0.00,,---,0.00,VWS V13.01,2013-06-22 06:57:00,
2013-06-22 03:02:00,63.5,57.9,0.00,East,100,0.0,0.0,82,0.00,,---,0.00,VWS V13.01,2013-06-22 07:02:00,
2013-06-22 03:07:00,63.5,57.9,0.00,East,100,0.0,0.0,82,0.00,,---,0.00,VWS V13.01,2013-06-22 07:07:00,
2013-06-22 03:12:00,63.5,58.2,0.00,East,100,0.0,0.0,83,0.00,,---,0.00,VWS V13.01,2013-06-22 07:12:00,
2013-06-22 03:17:00,63.5,58.2,0.00,East,100,0.0,0.0,83,0.00,,---,0.00,VWS V13.01,2013-06-22 07:17:00,
2013-06-22 03:22:00,63.7,58.4,0.00,East,100,0.0,0.0,83,0.00,,---,0.00,VWS V13.01,2013-06-22 07:22:00,
2013-06-22 03:27:00,63.7,58.4,0.00,East,100,0.0,0.0,83,0.00,,---,0.00,VWS V13.01,2013-06-22 07:27:00,
2013-06-22 03:32:00,63.9,58.6,0.00,East,100,0.0,0.0,83,0.00,,---,0.00,VWS V13.01,2013-06-22 07:32:00,
2013-06-22 03:37:00,64.0,59.1,0.00,East,100,0.0,0.0,84,0.00,,---,0.00,VWS V13.01,2013-06-22 07:37:00,
2013-06-22 03:42:00,64.2,59.3,0.00,East,100,0.0,0.0,84,0.00,,---,0.00,VWS V13.01,2013-06-22 07:42:00,
2013-06-22 03:47:00,64.4,59.5,0.00,East,100,0.0,0.0,84,0.00,,---,0.00,VWS V13.01,2013-06-22 07:47:00,
2013-06-22 03:52:00,64.6,59.6,0.00,East,100,0.0,0.0,84,0.00,,---,0.00,VWS V13.01,2013-06-22 07:52:00,
2013-06-22 03:57:00,64.8,60.2,0.00,East,100,0.0,0.0,85,0.00,,---,0.00,VWS V13.01,2013-06-22 07:57:00,
2013-06-22 04:02:00,64.9,60.3,0.00,East,100,0.0,0.0,85,0.00,,---,0.00,VWS V13.01,2013-06-22 08:02:00,
2013-06-22 04:07:00,65.1,60.5,0.00,East,95,0.0,0.0,85,0.00,,---,0.00,VWS V13.01,2013-06-22 08:07:00,
2013-06-22 04:12:00,65.1,60.5,0.00,East,95,0.0,0.0,85,0.00,,---,0.00,VWS V13.01,2013-06-22 08:12:00,
2013-06-22 04:18:00,65.5,61.2,0.00,East,95,0.0,0.0,86,0.00,,---,0.00,VWS V13.01,2013-06-22 08:18:00,
2013-06-22 04:23:00,65.5,61.2,0.00,East,95,0.0,0.0,86,0.00,,---,0.00,VWS V13.01,2013-06-22 08:23:00,
2013-06-22 04:28:00,65.7,61.4,0.00,East,95,0.0,0.0,86,0.00,,---,0.00,VWS V13.01,2013-06-22 08:28:00,
2013-06-22 04:33:00,65.8,61.5,0.00,ENE,74,0.0,0.0,86,0.00,,---,0.00,VWS V13.01,2013-06-22 08:33:00,
2013-06-22 04:38:00,65.8,61.5,0.00,ENE,74,0.0,0.0,86,0.00,,---,0.00,VWS V13.01,2013-06-22 08:38:00,
2013-06-22 04:43:00,65.8,61.5,0.00,ENE,74,0.0,0.0,86,0.00,,---,0.00,VWS V13.01,2013-06-22 08:43:00,
2013-06-22 04:48:00,65.8,61.5,0.00,NE,49,0.0,0.0,86,0.00,,---,0.00,VWS V13.01,2013-06-22 08:48:00,
2013-06-22 04:53:00,66.0,61.7,0.00,NE,49,0.0,0.0,86,0.00,,---,0.00,VWS V13.01,2013-06-22 08:53:00,
2013-06-22 04:58:00,66.0,61.7,0.00,NE,49,0.0,0.0,86,0.00,,---,0.00,VWS V13.01,2013-06-22 08:58:00,
2013-06-22 05:03:00,66.0,61.4,0.00,NE,49,0.0,0.0,85,0.00,,---,0.00,VWS V13.01,2013-06-22 09:03:00,
2013-06-22 05:08:00,66.0,61.4,0.00,North,357,0.0,0.0,85,0.00,,---,0.00,VWS V13.01,2013-06-22 09:08:00,
2013-06-22 05:13:00,66.0,61.4,0.00,NNE,20,0.0,0.0,85,0.00,,---,0.00,VWS V13.01,2013-06-22 09:13:00,
2013-06-22 05:18:00,66.0,61.4,0.00,NNE,20,0.0,0.0,85,0.00,,---,0.00,VWS V13.01,2013-06-22 09:18:00,
2013-06-22 05:23:00,66.2,61.6,0.00,NNE,20,0.0,0.0,85,0.00,,---,0.00,VWS V13.01,2013-06-22 09:23:00,
2013-06-22 05:28:00,66.0,61.4,0.00,NNE,20,0.0,0.0,85,0.00,,---,0.00,VWS V13.01,2013-06-22 09:28:00,
2013-06-22 05:34:00,66.0,61.7,0.00,NNE,20,0.0,0.0,86,0.00,,---,0.00,VWS V13.01,2013-06-22 09:34:00,
2013-06-22 05:39:00,66.0,61.7,0.00,NNE,20,0.0,0.0,86,0.00,,---,0.00,VWS V13.01,2013-06-22 09:39:00,
2013-06-22 05:44:00,66.0,61.7,0.00,NNE,20,0.0,0.0,86,0.00,,---,0.00,VWS V13.01,2013-06-22 09:44:00,
2013-06-22 05:49:00,65.8,61.5,0.00,NNE,20,0.0,0.0,86,0.00,,---,0.00,VWS V13.01,2013-06-22 09:49:00,
2013-06-22 05:54:00,65.8,61.9,0.00,NNE,20,0.0,0.0,87,0.00,,---,0.00,VWS V13.01,2013-06-22 09:54:00,
2013-06-22 05:59:00,65.8,61.9,0.00,NNE,20,0.0,0.0,87,0.00,,---,0.00,VWS V13.01,2013-06-22 09:59:00,
2013-06-22 06:04:00,65.8,61.9,0.00,NNE,20,0.0,0.0,87,0.00,,---,0.00,VWS V13.01,2013-06-22 10:04:00,
2013-06-22 06:09:00,65.8,62.2,0.00,NNE,20,0.0,0.0,88,0.00,,---,0.00,VWS V13.01,2013-06-22 10:09:00,
2013-06-22 06:14:00,65.8,62.2,0.00,NNW,343,0.0,0.0,88,0.00,,---,0.00,VWS V13.01,2013-06-22 10:14:00,
2013-06-22 06:19:00,65.8,62.2,0.00,North,350,0.0,0.0,88,0.00,,---,0.00,VWS V13.01,2013-06-22 10:19:00,
2013-06-22 06:24:00,66.0,62.7,0.00,North,11,0.0,0.0,89,0.00,,---,0.00,VWS V13.01,2013-06-22 10:24:00,
2013-06-22 06:29:00,66.0,62.7,0.00,North,349,0.0,0.0,89,0.00,,---,0.00,VWS V13.01,2013-06-22 10:29:00,
2013-06-22 06:34:00,66.0,63.0,0.00,North,9,0.0,0.0,90,0.00,,---,0.00,VWS V13.01,2013-06-22 10:34:00,
2013-06-22 06:39:00,66.0,63.0,0.00,North,9,0.0,0.0,90,0.00,,---,0.00,VWS V13.01,2013-06-22 10:39:00,
2013-06-22 06:44:00,66.2,63.2,0.00,North,9,0.0,0.0,90,0.00,,---,0.00,VWS V13.01,2013-06-22 10:44:00,
2013-06-22 06:49:00,66.2,63.2,0.00,NW,316,0.0,0.0,90,0.00,,---,0.00,VWS V13.01,2013-06-22 10:49:00,
2013-06-22 06:54:00,66.4,63.4,0.00,NW,316,0.0,0.0,90,0.00,,---,0.00,VWS V13.01,2013-06-22 10:54:00,
2013-06-22 06:59:00,66.4,63.7,0.00,NW,316,0.0,0.0,91,0.00,,---,0.00,VWS V13.01,2013-06-22 10:59:00,
2013-06-22 07:04:00,66.6,63.9,0.00,NW,316,0.0,0.0,91,0.00,,---,0.00,VWS V13.01,2013-06-22 11:04:00,
2013-06-22 07:09:00,66.6,63.9,0.00,North,9,0.0,0.0,91,0.00,,---,0.00,VWS V13.01,2013-06-22 11:09:00,
2013-06-22 07:14:00,66.6,63.9,0.00,NNE,21,0.0,0.0,91,0.00,,---,0.00,VWS V13.01,2013-06-22 11:14:00,
2013-06-22 07:20:00,66.7,64.0,0.00,NNE,21,0.0,0.0,91,0.00,,---,0.00,VWS V13.01,2013-06-22 11:20:00,
2013-06-22 07:25:00,66.9,64.5,0.00,NNE,21,0.0,0.0,92,0.00,,---,0.00,VWS V13.01,2013-06-22 11:25:00,
2013-06-22 07:30:00,66.9,64.5,0.00,North,7,0.0,0.0,92,0.00,,---,0.00,VWS V13.01,2013-06-22 11:30:00,
2013-06-22 07:35:00,67.1,64.7,0.00,North,9,0.0,0.0,92,0.00,,---,0.00,VWS V13.01,2013-06-22 11:35:00,
2013-06-22 07:40:00,67.1,64.7,0.00,North,9,0.0,0.0,92,0.00,,---,0.00,VWS V13.01,2013-06-22 11:40:00,
2013-06-22 07:45:00,67.3,64.9,0.00,North,357,0.0,0.0,92,0.00,,---,0.00,VWS V13.01,2013-06-22 11:45:00,
2013-06-22 07:50:00,67.3,64.9,0.00,NNE,13,0.0,0.0,92,0.00,,---,0.00,VWS V13.01,2013-06-22 11:50:00,
2013-06-22 07:55:00,67.5,65.1,0.00,NNE,12,0.0,0.0,92,0.00,,---,0.00,VWS V13.01,2013-06-22 11:55:00,
2013-06-22 08:00:00,67.5,65.1,0.00,North,4,0.0,0.0,92,0.00,,---,0.00,VWS V13.01,2013-06-22 12:00:00,
2013-06-22 08:05:00,67.5,65.1,0.00,North,353,0.0,3.1,92,0.00,,---,0.00,VWS V13.01,2013-06-22 12:05:00,
2013-06-22 08:10:00,67.6,65.2,0.00,North,357,0.0,3.1,92,0.00,,---,0.00,VWS V13.01,2013-06-22 12:10:00,
2013-06-22 08:15:00,67.6,65.2,0.00,North,357,0.0,3.1,92,0.00,,---,0.00,VWS V13.01,2013-06-22 12:15:00,
2013-06-22 08:20:00,67.6,65.2,0.00,North,1,0.0,0.0,92,0.00,,---,0.00,VWS V13.01,2013-06-22 12:20:00,
2013-06-22 08:25:00,67.6,65.2,0.00,NE,34,0.0,2.7,92,0.00,,---,0.00,VWS V13.01,2013-06-22 12:25:00,
2013-06-22 08:30:00,67.8,65.4,0.00,NE,34,0.0,2.7,92,0.00,,---,0.00,VWS V13.01,2013-06-22 12:30:00,
2013-06-22 08:35:00,67.8,65.4,0.00,NE,34,0.0,2.7,92,0.00,,---,0.00,VWS V13.01,2013-06-22 12:35:00,
2013-06-22 08:41:00,67.8,65.4,0.00,NNE,33,0.0,3.6,92,0.00,,---,0.00,VWS V13.01,2013-06-22 12:41:00,
2013-06-22 08:46:00,68.0,65.6,0.00,NNW,342,0.0,3.6,92,0.00,,---,0.00,VWS V13.01,2013-06-22 12:46:00,
2013-06-22 08:51:00,68.0,65.3,0.00,North,7,0.0,3.6,91,0.00,,---,0.00,VWS V13.01,2013-06-22 12:51:00,
2013-06-22 08:56:00,68.2,65.5,0.00,NE,47,0.0,3.6,91,0.00,,---,0.00,VWS V13.01,2013-06-22 12:56:00,
2013-06-22 09:01:00,68.2,65.5,0.00,NNE,19,0.0,0.0,91,0.00,,---,0.00,VWS V13.01,2013-06-22 13:01:00,
2013-06-22 09:06:00,68.2,65.5,0.00,NNE,19,0.0,0.0,91,0.00,,---,0.00,VWS V13.01,2013-06-22 13:06:00,
2013-06-22 09:11:00,68.2,65.1,0.00,NE,34,0.0,0.0,90,0.00,,---,0.00,VWS V13.01,2013-06-22 13:11:00,
2013-06-22 09:16:00,68.4,65.3,0.00,NNE,33,0.0,0.0,90,0.00,,---,0.00,VWS V13.01,2013-06-22 13:16:00,
2013-06-22 09:21:00,68.5,65.5,0.00,NNE,33,0.0,0.0,90,0.00,,---,0.00,VWS V13.01,2013-06-22 13:21:00,
2013-06-22 09:26:00,68.5,65.5,0.00,NW,310,0.0,0.0,90,0.00,,---,0.00,VWS V13.01,2013-06-22 13:26:00,
2013-06-22 09:31:00,68.7,65.7,0.00,NNE,29,0.0,2.7,90,0.00,,---,0.00,VWS V13.01,2013-06-22 13:31:00,
2013-06-22 09:36:00,68.7,65.3,0.00,NE,36,0.0,2.7,89,0.00,,---,0.00,VWS V13.01,2013-06-22 13:36:00,
2013-06-22 09:41:00,68.7,65.3,0.00,NNE,29,3.1,3.1,89,0.00,,---,0.00,VWS V13.01,2013-06-22 13:41:00,
2013-06-22 09:46:00,68.5,64.5,0.00,North,353,2.2,4.9,87,0.00,,---,0.00,VWS V13.01,2013-06-22 13:46:00,
2013-06-22 09:52:00,68.7,64.7,0.00,NNE,16,0.0,4.9,87,0.00,,---,0.00,VWS V13.01,2013-06-22 13:52:00,
2013-06-22 09:57:00,68.9,64.9,0.00,North,8,0.0,4.9,87,0.00,,---,0.00,VWS V13.01,2013-06-22 13:57:00,
2013-06-22 10:02:00,69.1,65.1,0.00,North,2,0.0,0.0,87,0.00,,---,0.00,VWS V13.01,2013-06-22 14:02:00,
2013-06-22 10:07:00,69.1,65.1,0.00,North,357,2.7,3.1,87,0.00,,---,0.00,VWS V13.01,2013-06-22 14:07:00,
2013-06-22 10:12:00,69.3,64.9,0.00,NNE,12,0.0,3.1,86,0.00,,---,0.00,VWS V13.01,2013-06-22 14:12:00,
2013-06-22 10:17:00,69.4,64.7,0.00,NE,35,0.0,3.6,85,0.00,,---,0.00,VWS V13.01,2013-06-22 14:17:00,
2013-06-22 10:22:00,70.2,65.8,0.00,North,10,0.0,2.7,86,0.00,,---,0.00,VWS V13.01,2013-06-22 14:22:00,
2013-06-22 10:27:00,70.5,64.4,0.00,NNE,31,2.2,6.3,81,0.00,,---,0.00,VWS V13.01,2013-06-22 14:27:00,
2013-06-22 10:32:00,70.5,64.4,0.00,North,349,3.6,6.3,81,0.00,,---,0.00,VWS V13.01,2013-06-22 14:32:00,
2013-06-22 10:37:00,71.1,64.9,0.00,NE,54,2.7,6.3,81,0.00,,---,0.00,VWS V13.01,2013-06-22 14:37:00,
2013-06-22 10:42:00,72.0,64.0,0.00,NE,43,0.0,4.5,76,0.00,,---,0.00,VWS V13.01,2013-06-22 14:42:00,
2013-06-22 10:47:00,73.0,65.8,0.00,NNE,24,0.0,4.5,78,0.00,,---,0.00,VWS V13.01,2013-06-22 14:47:00,
2013-06-22 10:52:00,73.4,65.4,0.00,NNE,33,3.1,4.5,76,0.00,,---,0.00,VWS V13.01,2013-06-22 14:52:00,
2013-06-22 10:57:00,73.6,65.2,0.00,West,263,0.0,4.9,75,0.00,,---,0.00,VWS V13.01,2013-06-22 14:57:00,
2013-06-22 11:02:00,74.1,65.3,0.00,NNE,32,3.6,3.6,74,0.00,,---,0.00,VWS V13.01,2013-06-22 15:02:00,
2013-06-22 11:07:00,74.8,65.6,0.00,South,173,2.7,4.0,73,0.00,,---,0.00,VWS V13.01,2013-06-22 15:07:00,
2013-06-22 11:12:00,75.2,64.8,0.00,NW,323,2.7,5.8,70,0.00,,---,0.00,VWS V13.01,2013-06-22 15:12:00,
2013-06-22 11:17:00,74.8,63.6,0.00,West,273,3.6,5.8,68,0.00,,---,0.00,VWS V13.01,2013-06-22 15:17:00,
2013-06-22 11:22:00,74.8,63.2,0.00,NNW,337,0.0,0.0,67,0.00,,---,0.00,VWS V13.01,2013-06-22 15:22:00,
2013-06-22 11:27:00,74.8,63.6,0.00,North,353,2.7,4.5,68,0.00,,---,0.00,VWS V13.01,2013-06-22 15:27:00,
2013-06-22 11:32:00,75.4,64.1,0.00,North,353,2.7,4.5,68,0.00,,---,0.00,VWS V13.01,2013-06-22 15:32:00,
2013-06-22 11:37:00,75.4,64.1,0.00,NNW,340,2.2,4.5,68,0.00,,---,0.00,VWS V13.01,2013-06-22 15:37:00,
2013-06-22 11:42:00,75.7,64.4,0.00,NNW,341,0.0,2.7,68,0.00,,---,0.00,VWS V13.01,2013-06-22 15:42:00,
2013-06-22 11:47:00,76.1,64.4,0.00,NE,35,0.0,2.7,67,0.00,,---,0.00,VWS V13.01,2013-06-22 15:47:00,
2013-06-22 11:52:00,78.3,67.3,0.00,SSW,194,3.6,3.6,69,0.00,,---,0.00,VWS V13.01,2013-06-22 15:52:00,
2013-06-22 11:57:00,79.2,65.0,0.00,ENE,77,2.2,4.0,62,0.00,,---,0.00,VWS V13.01,2013-06-22 15:57:00,
2013-06-22 12:02:00,79.9,65.2,0.00,SSW,208,2.7,2.7,61,0.00,,---,0.00,VWS V13.01,2013-06-22 16:02:00,
2013-06-22 12:07:00,80.4,65.8,0.00,West,260,2.2,4.0,61,0.00,,---,0.00,VWS V13.01,2013-06-22 16:07:00,
2013-06-22 12:12:00,81.3,65.1,0.00,South,191,2.7,5.4,58,0.00,,---,0.00,VWS V13.01,2013-06-22 16:12:00,
2013-06-22 12:17:00,80.8,63.1,0.00,NE,45,2.2,5.8,55,0.00,,---,0.00,VWS V13.01,2013-06-22 16:17:00,
2013-06-22 12:22:00,80.2,62.6,0.00,ENE,58,0.0,3.1,55,0.00,,---,0.00,VWS V13.01,2013-06-22 16:22:00,
2013-06-22 12:28:00,80.4,63.8,0.00,SE,140,2.7,4.0,57,0.00,,---,0.00,VWS V13.01,2013-06-22 16:28:00,
2013-06-22 12:33:00,81.3,64.1,0.00,South,183,5.4,5.4,56,0.00,,---,0.00,VWS V13.01,2013-06-22 16:33:00,
2013-06-22 12:38:00,81.0,62.8,0.00,ENE,64,0.0,7.2,54,0.00,,---,0.00,VWS V13.01,2013-06-22 16:38:00,
2013-06-22 12:43:00,80.2,62.1,0.00,SSE,147,4.0,4.0,54,0.00,,---,0.00,VWS V13.01,2013-06-22 16:43:00,
2013-06-22 12:48:00,81.1,63.5,0.00,SSE,156,3.1,4.0,55,0.00,,---,0.00,VWS V13.01,2013-06-22 16:48:00,
2013-06-22 12:53:00,81.3,62.6,0.00,NNW,345,2.7,4.9,53,0.00,,---,0.00,VWS V13.01,2013-06-22 16:53:00,
2013-06-22 12:58:00,81.3,62.0,0.00,South,182,3.1,4.9,52,0.00,,---,0.00,VWS V13.01,2013-06-22 16:58:00,
2013-06-22 13:03:00,81.5,63.3,0.00,NNE,23,0.0,3.6,54,0.00,,---,0.00,VWS V13.01,2013-06-22 17:03:00,
2013-06-22 13:08:00,81.3,63.1,0.00,NNW,341,2.7,4.5,54,0.00,,---,0.00,VWS V13.01,2013-06-22 17:08:00,
2013-06-22 13:13:00,82.0,65.8,0.00,WNW,282,0.0,4.5,58,0.00,,---,0.00,VWS V13.01,2013-06-22 17:13:00,
2013-06-22 13:18:00,82.8,65.0,0.00,NNE,22,0.0,4.5,55,0.00,,---,0.00,VWS V13.01,2013-06-22 17:18:00,
2013-06-22 13:23:00,82.6,63.2,0.00,ENE,66,0.0,0.0,52,0.00,,---,0.00,VWS V13.01,2013-06-22 17:23:00,
2013-06-22 13:28:00,82.0,62.7,0.00,NNW,342,0.0,0.0,52,0.00,,---,0.00,VWS V13.01,2013-06-22 17:28:00,
2013-06-22 13:33:00,82.2,63.9,0.00,NNE,18,0.0,0.0,54,0.00,,---,0.00,VWS V13.01,2013-06-22 17:33:00,
2013-06-22 13:38:00,82.2,62.3,0.00,WNW,297,0.0,0.0,51,0.00,,---,0.00,VWS V13.01,2013-06-22 17:38:00,
2013-06-22 13:43:00,82.0,61.6,0.00,NE,38,0.0,4.0,50,0.00,,---,0.00,VWS V13.01,2013-06-22 17:43:00,
2013-06-22 13:48:00,82.2,61.8,0.00,North,11,0.0,4.0,50,0.00,,---,0.00,VWS V13.01,2013-06-22 17:48:00,
2013-06-22 13:53:00,82.8,62.2,0.00,NNE,30,3.1,4.0,50,0.00,,---,0.00,VWS V13.01,2013-06-22 17:53:00,
2013-06-22 13:58:00,83.8,66.0,0.00,SE,126,0.0,4.0,55,0.00,,---,0.00,VWS V13.01,2013-06-22 17:58:00,
2013-06-22 14:03:00,84.4,62.6,0.00,NW,323,0.0,4.0,48,0.00,,---,0.00,VWS V13.01,2013-06-22 18:03:00,
2013-06-22 14:08:00,85.3,64.0,0.00,NNW,344,2.7,6.3,49,0.00,,---,0.00,VWS V13.01,2013-06-22 18:08:00,
2013-06-22 14:13:00,84.7,61.7,0.00,North,7,0.0,6.3,46,0.00,,---,0.00,VWS V13.01,2013-06-22 18:13:00,
2013-06-22 14:18:00,84.6,62.7,0.00,WNW,282,0.0,6.3,48,0.00,,---,0.00,VWS V13.01,2013-06-22 18:18:00,
2013-06-22 14:23:00,86.0,65.2,0.00,SSW,206,0.0,3.1,50,0.00,,---,0.00,VWS V13.01,2013-06-22 18:23:00,
2013-06-22 14:28:00,86.2,60.4,0.00,ESE,117,0.0,3.1,42,0.00,,---,0.00,VWS V13.01,2013-06-22 18:28:00,
2013-06-22 14:33:00,85.1,60.8,0.00,WNW,286,0.0,3.1,44,0.00,,---,0.00,VWS V13.01,2013-06-22 18:33:00,
2013-06-22 14:38:00,85.6,63.1,0.00,NNE,20,2.2,4.0,47,0.00,,---,0.00,VWS V13.01,2013-06-22 18:38:00,
2013-06-22 14:43:00,86.7,62.2,0.00,NE,39,4.9,4.9,44,0.00,,---,0.00,VWS V13.01,2013-06-22 18:43:00,
2013-06-22 14:48:00,87.1,61.9,0.00,North,0,2.2,4.9,43,0.00,,---,0.00,VWS V13.01,2013-06-22 18:48:00,
2013-06-22 14:53:00,86.0,60.3,0.00,NE,39,0.0,4.9,42,0.00,,---,0.00,VWS V13.01,2013-06-22 18:53:00,
2013-06-22 14:58:00,84.7,60.4,0.00,NNW,348,0.0,4.9,44,0.00,,---,0.00,VWS V13.01,2013-06-22 18:58:00,
2013-06-22 15:03:00,85.5,64.1,0.00,NNW,340,0.0,0.0,49,0.00,,---,0.00,VWS V13.01,2013-06-22 19:03:00,
2013-06-22 15:08:00,85.8,60.8,0.00,NE,36,4.0,6.3,43,0.00,,---,0.00,VWS V13.01,2013-06-22 19:08:00,
2013-06-22 15:13:00,86.4,63.2,0.00,NNW,344,0.0,6.3,46,0.00,,---,0.00,VWS V13.01,2013-06-22 19:13:00,
2013-06-22 15:18:00,86.9,62.4,0.00,NNW,335,2.7,6.3,44,0.00,,---,0.00,VWS V13.01,2013-06-22 19:18:00,
2013-06-22 15:23:00,87.8,63.2,0.00,SW,221,2.7,3.6,44,0.00,,---,0.00,VWS V13.01,2013-06-22 19:23:00,
2013-06-22 15:28:00,88.9,62.8,0.00,SE,127,0.0,3.6,42,0.00,,---,0.00,VWS V13.01,2013-06-22 19:28:00,
2013-06-22 15:33:00,89.4,61.9,0.00,NW,311,0.0,5.8,40,0.00,,---,0.00,VWS V13.01,2013-06-22 19:33:00,
2013-06-22 15:38:00,89.1,61.6,0.00,North,0,2.7,5.8,40,0.00,,---,0.00,VWS V13.01,2013-06-22 19:38:00,
2013-06-22 15:43:00,88.9,63.5,0.00,NNW,344,4.0,4.0,43,0.00,,---,0.00,VWS V13.01,2013-06-22 19:43:00,
2013-06-22 15:49:00,88.9,61.5,0.00,NE,35,3.1,5.4,40,0.00,,---,0.00,VWS V13.01,2013-06-22 19:49:00,
2013-06-22 15:54:00,88.2,61.5,0.00,NNE,24,2.2,5.4,41,0.00,,---,0.00,VWS V13.01,2013-06-22 19:54:00,
2013-06-22 15:59:00,88.2,61.5,0.00,WNW,303,0.0,5.4,41,0.00,,---,0.00,VWS V13.01,2013-06-22 19:59:00,
2013-06-22 16:04:00,88.7,61.3,0.00,WNW,301,0.0,3.1,40,0.00,,---,0.00,VWS V13.01,2013-06-22 20:04:00,
2013-06-22 16:09:00,89.2,61.8,0.00,NNW,328,0.0,3.1,40,0.00,,---,0.00,VWS V13.01,2013-06-22 20:09:00,
2013-06-22 16:14:00,89.6,62.8,0.00,NNE,30,3.1,3.1,41,0.00,,---,0.00,VWS V13.01,2013-06-22 20:14:00,
2013-06-22 16:19:00,88.3,58.8,0.00,NE,37,2.7,5.4,37,0.00,,---,0.00,VWS V13.01,2013-06-22 20:19:00,
2013-06-22 16:24:00,86.5,59.4,0.00,NNE,32,0.0,3.6,40,0.00,,---,0.00,VWS V13.01,2013-06-22 20:24:00,
2013-06-22 16:29:00,85.3,60.9,0.00,NE,39,0.0,3.6,44,0.00,,---,0.00,VWS V13.01,2013-06-22 20:29:00,
2013-06-22 16:34:00,84.2,61.2,0.00,NE,39,0.0,3.6,46,0.00,,---,0.00,VWS V13.01,2013-06-22 20:34:00,
2013-06-22 16:39:00,83.7,61.3,0.00,NE,38,2.7,4.9,47,0.00,,---,0.00,VWS V13.01,2013-06-22 20:39:00,
2013-06-22 16:44:00,83.3,61.0,0.00,North,6,0.0,2.7,47,0.00,,---,0.00,VWS V13.01,2013-06-22 20:44:00,
2013-06-22 16:49:00,82.9,62.4,0.00,NNE,17,0.0,2.7,50,0.00,,---,0.00,VWS V13.01,2013-06-22 20:49:00,
2013-06-22 16:54:00,82.6,62.6,0.00,NNE,31,0.0,3.1,51,0.00,,---,0.00,VWS V13.01,2013-06-22 20:54:00,
2013-06-22 16:59:00,82.0,63.2,0.00,NNE,33,0.0,3.1,53,0.00,,---,0.00,VWS V13.01,2013-06-22 20:59:00,
2013-06-22 17:04:00,81.7,64.0,0.00,NNE,28,2.7,3.1,55,0.00,,---,0.00,VWS V13.01,2013-06-22 21:04:00,
2013-06-22 17:09:00,81.7,64.0,0.00,NNW,328,0.0,3.1,55,0.00,,---,0.00,VWS V13.01,2013-06-22 21:09:00,
2013-06-22 17:14:00,81.9,63.1,0.00,North,357,0.0,3.6,53,0.00,,---,0.00,VWS V13.01,2013-06-22 21:14:00,
2013-06-22 17:19:00,82.0,61.6,0.00,NE,50,0.0,3.6,50,0.00,,---,0.00,VWS V13.01,2013-06-22 21:19:00,
2013-06-22 17:24:00,82.0,62.1,0.00,East,93,0.0,3.1,51,0.00,,---,0.00,VWS V13.01,2013-06-22 21:24:00,
2013-06-22 17:29:00,82.0,61.6,0.00,North,357,0.0,5.4,50,0.00,,---,0.00,VWS V13.01,2013-06-22 21:29:00,
2013-06-22 17:34:00,82.0,61.6,0.00,ESE,107,2.2,5.4,50,0.00,,---,0.00,VWS V13.01,2013-06-22 21:34:00,
2013-06-22 17:39:00,82.2,60.6,0.00,SE,143,3.1,5.4,48,0.00,,---,0.00,VWS V13.01,2013-06-22 21:39:00,
2013-06-22 17:45:00,82.4,60.2,0.00,ESE,110,3.1,5.4,47,0.00,,---,0.00,VWS V13.01,2013-06-22 21:45:00,
2013-06-22 17:50:00,82.2,60.6,0.00,NNW,332,2.7,5.4,48,0.00,,---,0.00,VWS V13.01,2013-06-22 21:50:00,
2013-06-22 17:55:00,82.4,61.3,0.00,NW,315,3.6,5.4,49,0.00,,---,0.00,VWS V13.01,2013-06-22 21:55:00,
2013-06-22 18:00:00,82.2,61.2,0.00,NW,322,0.0,2.2,49,0.00,,---,0.00,VWS V13.01,2013-06-22 22:00:00,
2013-06-22 18:05:00,82.0,61.0,0.00,NNW,343,0.0,5.8,49,0.00,,---,0.00,VWS V13.01,2013-06-22 22:05:00,
2013-06-22 18:10:00,81.5,61.7,0.00,SW,230,0.0,5.8,51,0.00,,---,0.00,VWS V13.01,2013-06-22 22:10:00,
2013-06-22 18:15:00,81.7,62.4,0.00,NNW,338,2.2,6.7,52,0.00,,---,0.00,VWS V13.01,2013-06-22 22:15:00,
2013-06-22 18:20:00,81.9,62.5,0.00,NNW,331,2.7,3.6,52,0.00,,---,0.00,VWS V13.01,2013-06-22 22:20:00,
2013-06-22 18:25:00,82.0,62.1,0.00,SE,129,2.2,5.8,51,0.00,,---,0.00,VWS V13.01,2013-06-22 22:25:00,
2013-06-22 18:30:00,82.0,62.1,0.00,SSW,209,3.6,5.8,51,0.00,,---,0.00,VWS V13.01,2013-06-22 22:30:00,
2013-06-22 18:35:00,81.7,62.4,0.00,SW,223,3.1,5.8,52,0.00,,---,0.00,VWS V13.01,2013-06-22 22:35:00,
2013-06-22 18:40:00,81.3,62.0,0.00,SSW,193,0.0,4.0,52,0.00,,---,0.00,VWS V13.01,2013-06-22 22:40:00,
2013-06-22 18:45:00,81.1,62.4,0.00,SSE,160,0.0,4.0,53,0.00,,---,0.00,VWS V13.01,2013-06-22 22:45:00,
2013-06-22 18:51:00,81.1,62.9,0.00,SSE,149,0.0,4.0,54,0.00,,---,0.00,VWS V13.01,2013-06-22 22:51:00,
2013-06-22 18:56:00,80.8,62.1,0.00,SE,138,0.0,4.0,53,0.00,,---,0.00,VWS V13.01,2013-06-22 22:56:00,
2013-06-22 19:01:00,80.4,62.8,0.00,South,182,0.0,0.0,55,0.00,,---,0.00,VWS V13.01,2013-06-22 23:01:00,
2013-06-22 19:06:00,80.4,62.8,0.00,WSW,250,0.0,0.0,55,0.00,,---,0.00,VWS V13.01,2013-06-22 23:06:00,
2013-06-22 19:11:00,80.4,62.8,0.00,SW,222,3.6,3.6,55,0.00,,---,0.00,VWS V13.01,2013-06-22 23:11:00,
2013-06-22 19:16:00,80.4,62.8,0.00,SE,137,0.0,3.6,55,0.00,,---,0.00,VWS V13.01,2013-06-22 23:16:00,
2013-06-22 19:21:00,80.2,63.1,0.00,NW,326,0.0,2.7,56,0.00,,---,0.00,VWS V13.01,2013-06-22 23:21:00,
2013-06-22 19:26:00,80.2,64.1,0.00,WNW,291,0.0,3.1,58,0.00,,---,0.00,VWS V13.01,2013-06-22 23:26:00,
2013-06-22 19:31:00,80.1,64.5,0.00,ESE,110,0.0,4.0,59,0.00,,---,0.00,VWS V13.01,2013-06-22 23:31:00,
2013-06-22 19:36:00,79.9,64.8,0.00,NE,47,2.7,4.0,60,0.00,,---,0.00,VWS V13.01,2013-06-22 23:36:00,
2013-06-22 19:41:00,79.5,64.4,0.00,NW,304,0.0,2.2,60,0.00,,---,0.00,VWS V13.01,2013-06-22 23:41:00,
2013-06-22 19:46:00,79.3,64.3,0.00,WSW,238,0.0,3.1,60,0.00,,---,0.00,VWS V13.01,2013-06-22 23:46:00,
2013-06-22 19:51:00,79.2,63.6,0.00,South,182,0.0,3.6,59,0.00,,---,0.00,VWS V13.01,2013-06-22 23:51:00,
2013-06-22 19:56:00,79.0,63.4,0.00,SSW,193,2.2,3.6,59,0.00,,---,0.00,VWS V13.01,2013-06-22 23:56:00,
2013-06-22 20:01:00,78.6,63.1,0.00,NNW,329,0.0,0.0,59,0.00,,---,0.00,VWS V13.01,2013-06-23 00:01:00,
2013-06-22 20:06:00,78.3,62.8,0.00,NW,320,0.0,0.0,59,0.00,,---,0.00,VWS V13.01,2013-06-23 00:06:00,
2013-06-22 20:11:00,78.1,62.6,0.00,SSE,152,0.0,0.0,59,0.00,,---,0.00,VWS V13.01,2013-06-23 00:11:00,
2013-06-22 20:17:00,77.9,62.9,0.00,SSW,192,2.2,4.0,60,0.00,,---,0.00,VWS V13.01,2013-06-23 00:17:00,
2013-06-22 20:22:00,77.5,62.6,0.00,North,1,0.0,2.7,60,0.00,,---,0.00,VWS V13.01,2013-06-23 00:22:00,
2013-06-22 20:27:00,77.2,62.2,0.00,North,3,0.0,2.7,60,0.00,,---,0.00,VWS V13.01,2013-06-23 00:27:00,
2013-06-22 20:32:00,77.0,62.5,0.00,NNE,31,0.0,2.7,61,0.00,,---,0.00,VWS V13.01,2013-06-23 00:32:00,
2013-06-22 20:37:00,76.6,62.7,0.00,NNE,30,0.0,2.7,62,0.00,,---,0.00,VWS V13.01,2013-06-23 00:37:00,
2013-06-22 20:42:00,76.3,62.8,0.00,NNE,29,0.0,0.0,63,0.00,,---,0.00,VWS V13.01,2013-06-23 00:42:00,
2013-06-22 20:47:00,75.9,62.9,0.00,NNE,29,0.0,0.0,64,0.00,,---,0.00,VWS V13.01,2013-06-23 00:47:00,
2013-06-22 20:52:00,75.6,63.0,0.00,NNE,29,0.0,0.0,65,0.00,,---,0.00,VWS V13.01,2013-06-23 00:52:00,
2013-06-22 20:57:00,75.2,63.1,0.00,NNE,29,0.0,0.0,66,0.00,,---,0.00,VWS V13.01,2013-06-23 00:57:00,
2013-06-22 21:02:00,75.0,63.3,0.00,NNE,29,0.0,0.0,67,0.00,,---,0.00,VWS V13.01,2013-06-23 01:02:00,
2013-06-22 21:07:00,74.7,63.4,0.00,NNE,29,0.0,0.0,68,0.00,,---,0.00,VWS V13.01,2013-06-23 01:07:00,
2013-06-22 21:12:00,74.7,63.8,0.00,NNE,29,0.0,0.0,69,0.00,,---,0.00,VWS V13.01,2013-06-23 01:12:00,
2013-06-22 21:17:00,74.5,64.1,0.00,NNE,29,0.0,0.0,70,0.00,,---,0.00,VWS V13.01,2013-06-23 01:17:00,
2013-06-22 21:22:00,74.3,63.9,0.00,NNE,29,0.0,0.0,70,0.00,,---,0.00,VWS V13.01,2013-06-23 01:22:00,
2013-06-22 21:27:00,74.1,63.7,0.00,NNE,29,0.0,0.0,70,0.00,,---,0.00,VWS V13.01,2013-06-23 01:27:00,
2013-06-22 21:32:00,73.9,64.0,0.00,NNE,29,0.0,0.0,71,0.00,,---,0.00,VWS V13.01,2013-06-23 01:32:00,
2013-06-22 21:37:00,73.6,64.0,0.00,NNE,29,0.0,0.0,72,0.00,,---,0.00,VWS V13.01,2013-06-23 01:37:00,
2013-06-22 21:43:00,73.4,63.8,0.00,NNE,29,0.0,0.0,72,0.00,,---,0.00,VWS V13.01,2013-06-23 01:43:00,
2013-06-22 21:48:00,73.2,64.4,0.00,NNE,29,0.0,0.0,74,0.00,,---,0.00,VWS V13.01,2013-06-23 01:48:00,
2013-06-22 21:53:00,72.9,64.5,0.00,NNE,29,0.0,0.0,75,0.00,,---,0.00,VWS V13.01,2013-06-23 01:53:00,
2013-06-22 21:58:00,72.7,64.7,0.00,NNE,29,0.0,0.0,76,0.00,,---,0.00,VWS V13.01,2013-06-23 01:58:00,
2013-06-22 22:03:00,72.7,65.1,0.00,NNE,29,0.0,0.0,77,0.00,,---,0.00,VWS V13.01,2013-06-23 02:03:00,
2013-06-22 22:08:00,72.7,65.4,0.00,NNE,29,0.0,0.0,78,0.00,,---,0.00,VWS V13.01,2013-06-23 02:08:00,
2013-06-22 22:13:00,72.7,65.4,0.00,NNE,29,0.0,0.0,78,0.00,,---,0.00,VWS V13.01,2013-06-23 02:13:00,
2013-06-22 22:18:00,72.5,65.3,0.00,NNE,29,0.0,0.0,78,0.00,,---,0.00,VWS V13.01,2013-06-23 02:18:00,
2013-06-22 22:23:00,72.3,65.1,0.00,NNE,29,0.0,0.0,78,0.00,,---,0.00,VWS V13.01,2013-06-23 02:23:00,
2013-06-22 22:28:00,72.3,65.4,0.00,NNE,29,0.0,0.0,79,0.00,,---,0.00,VWS V13.01,2013-06-23 02:28:00,
2013-06-22 22:33:00,72.1,65.3,0.00,NNE,29,0.0,0.0,79,0.00,,---,0.00,VWS V13.01,2013-06-23 02:33:00,
2013-06-22 22:38:00,72.0,65.1,0.00,NNE,29,0.0,0.0,79,0.00,,---,0.00,VWS V13.01,2013-06-23 02:38:00,
2013-06-22 22:43:00,72.0,65.5,0.00,NNE,29,0.0,0.0,80,0.00,,---,0.00,VWS V13.01,2013-06-23 02:43:00,
2013-06-22 22:48:00,72.1,65.6,0.00,NNE,29,0.0,0.0,80,0.00,,---,0.00,VWS V13.01,2013-06-23 02:48:00,
2013-06-22 22:54:00,72.1,65.6,0.00,NNE,29,0.0,0.0,80,0.00,,---,0.00,VWS V13.01,2013-06-23 02:54:00,
2013-06-22 22:59:00,72.0,65.5,0.00,NNE,29,0.0,0.0,80,0.00,,---,0.00,VWS V13.01,2013-06-23 02:59:00,
2013-06-22 23:04:00,71.8,65.3,0.00,NNE,29,0.0,0.0,80,0.00,,---,0.00,VWS V13.01,2013-06-23 03:04:00,
2013-06-22 23:09:00,71.8,65.3,0.00,NNE,29,0.0,0.0,80,0.00,,---,0.00,VWS V13.01,2013-06-23 03:09:00,
2013-06-22 23:14:00,71.6,65.5,0.00,NNE,29,0.0,0.0,81,0.00,,---,0.00,VWS V13.01,2013-06-23 03:14:00,
2013-06-22 23:19:00,71.6,65.5,0.00,NNE,29,0.0,0.0,81,0.00,,---,0.00,VWS V13.01,2013-06-23 03:19:00,
2013-06-22 23:24:00,71.4,65.3,0.00,NNE,29,0.0,0.0,81,0.00,,---,0.00,VWS V13.01,2013-06-23 03:24:00,
2013-06-22 23:29:00,71.4,65.6,0.00,NNE,29,0.0,0.0,82,0.00,,---,0.00,VWS V13.01,2013-06-23 03:29:00,
2013-06-22 23:34:00,71.6,65.8,0.00,NNE,29,0.0,0.0,82,0.00,,---,0.00,VWS V13.01,2013-06-23 03:34:00,
2013-06-22 23:40:00,71.6,66.2,0.00,NNE,29,0.0,0.0,83,0.00,,---,0.00,VWS V13.01,2013-06-23 03:40:00,
2013-06-22 23:45:00,71.6,66.2,0.00,NNE,29,0.0,0.0,83,0.00,,---,0.00,VWS V13.01,2013-06-23 03:45:00,
2013-06-22 23:50:00,71.8,66.3,0.00,NNE,29,0.0,0.0,83,0.00,,---,0.00,VWS V13.01,2013-06-23 03:50:00,
2013-06-22 23:55:00,71.8,66.3,0.00,NNE,29,0.0,0.0,83,0.00,,---,0.00,VWS V13.01,2013-06-23 03:55:00,